Weather Service Report


162 
ASUS42 KTBW 072316
RWRFL 
FLORIDA REGIONAL WEATHER ROUNDUP
NATIONAL WEATHER SERVICE TAMPA BAY RUSKIN FL
600 PM EST WED DEC 07 2016

NOTE: "FAIR" INDICATES FEW OR NO CLOUDS BELOW 12,000 FEET WITH NO
SIGNIFICANT WEATHER AND/OR OBSTRUCTIONS TO VISIBILITY.

FLZ001>010-012>015-112-114-115-080000-
PANHANDLE FLORIDA
  
CITY           SKY/WX    TMP DP  RH WIND       PRES   REMARKS
PENSACOLA      CLEAR     62  52  69 N6        30.09R                  
PENSACOLA NAS  PTCLDY    60  53  77 CALM      30.09R                  
MILTON NAS     PTCLDY    56  50  80 N3        30.10                   
CRESTVIEW      CLEAR     57  49  74 N3        30.11R                  
DUKE FIELD     PTCLDY    58  49  74 NW2       30.10R                  
VALPARAISO     PTCLDY    60  51  71 N5        30.09R                  
MARY ESTHER    PTCLDY    59  50  70 N7        30.08R                  
PANAMA CITY    FAIR      62  54  74 NW6       30.08R                  
TYNDALL AFB    CLEAR     61  55  80 W6        30.09R                  
APALACHICOLA   CLEAR     62  56  80 W5        30.07R                  

STATION/POSITION SKY/WX   TEMP    WIND        PRES    WAVE   SWELL
                          AIR SEA DIR/SP/G            HT/PER HT/PER
                          (F)     (DEG/KT/KT) (MB)    (FT/S) (FT/S)
30.1N   87.6W              64 69  290/  6/  6 1019.0R   1/ 6   2/ 6
29.2N   88.2W              67 75   60/  6/ 10 1018.6R   2/ 7   2/ 7
28.8N   86.0W              68 75              1019.1R   2/ 7   2/ 7
PANAMA CITY BEAC           64 68  290/  9/ 10 1018.9R
TOWER C                    64     310/ 12/ 14 1019.4R
28.5N   84.5W              69 75  340/ 10/ 12 1018.9R   3/ 8   2/ 8

$$
FLZ011-016>038-118-127-128-134-139-239-080000-
NORTH FLORIDA
  
CITY           SKY/WX    TMP DP  RH WIND       PRES   REMARKS
MARIANNA       CLEAR     58  51  78 N6        30.09R                  
TALLAHASSEE    PTCLDY    61  53  75 NW3       30.08R                  
PERRY          CLEAR     61  55  78 NW5       30.08R                  
CROSS CITY     CLEAR     61  57  88 W6        30.08R                  
LAKE CITY      FAIR      63  55  77 CALM      30.07R                  
GAINESVILLE    CLEAR     63  57  81 W3        30.07R                  
WILLISTON      CLEAR     66  61  82 SW3       30.08R                  
PALATKA        FAIR      63  63 100 CALM      30.07R                  
MAYPORT NAS    PTCLDY    64  59  83 SE5       30.05R                  
JACKSONVILLE   PTCLDY    63  60  90 CALM      30.05R                  
JAX NAS        PTCLDY    70  57  63 S3        30.06R                  
FERNANDINA BEA FAIR      64  61  88 E3        30.05R                  
ST AUGUSTINE   PTCLDY    65  60  84 CALM      30.07R                  

STATION/POSITION SKY/WX   TEMP    WIND        PRES    WAVE   SWELL
                          AIR SEA DIR/SP/G            HT/PER HT/PER
                          (F)     (DEG/KT/KT) (MB)    (FT/S) (FT/S)
SHELL POINT      NOT AVBL
KEATON BEACH               63     270/  9/ 10 1018.4R
CEDAR KEY                  65     300/  6/  7 1019.5R
FERNANDINA                 64 68  100/  2/  4 1017.5R
30.7N   81.3W                 66                N/A     1/13
MAYPORT                    65 67   CALM  /  2 1017.7R
31.4N   80.9W              63 65  120/  4/  6 1017.7R   2/ 7   2/ 7
ST AUGUSTINE               66 68  130/  3/  3 1019.0R

$$
FLZ040-043>046-052-053-057-058-063-144-080000-
INTERIOR CENTRAL FLORIDA
  
CITY           SKY/WX    TMP DP  RH WIND       PRES   REMARKS
OCALA          CLEAR     68  55  64 NW5       30.07R                  
THE VILLAGES     N/A     70  68  94 MISG      29.98R                  
LEESBURG       CLOUDY    72  58  61 W9        30.08R                  
SANFORD        PTCLDY    70  56  61 W6        30.06R                  
ORLANDO EXEC   CLEAR     73  58  59 W6        30.07R                  
ORLANDO INTL   PTCLDY    73  57  57 NW3       30.07R                  
WINTER HAVEN   CLEAR     72  59  63 CALM      30.08R                  
LAKELAND       CLEAR     72  63  73 NW9       30.08R                  
BARTOW         FAIR      72  61  68 CALM      30.07R                  
OKEECHOBEE     CLEAR     72  63  73 N3        30.06R                  

$$
FLZ041-047-054-059-064-141-147-080000-
EAST CENTRAL FLORIDA
  
CITY           SKY/WX    TMP DP  RH WIND       PRES   REMARKS
ORMOND BEACH   CLEAR     64  63  94 CALM      30.07R                  
DAYTONA BEACH  MOCLDY    66  62  87 NE5       30.07R                  
DELAND         PTCLDY    70  61  73 NW3       30.06R                  
NEW SMYRNA BEA CLEAR     68  63  83 NE7       30.06R                  
JFK SPACE CTR  CLEAR     65  60  85 E2        30.05R                  
TITUSVILLE     PTCLDY    70  66  88 NE7       30.07                   
CAPE CANAVERAL CLEAR     67  62  85 E1        30.05R                  
PATRICK AFB    CLEAR     69  64  83 NE6       30.06R                  
MELBOURNE      CLEAR     69  65  86 NE3       30.06R                  
VERO BEACH     CLEAR     69  65  86 N3        30.06R                  
FT PIERCE      CLEAR     71  65  81 NE3       30.06R                  
STUART         CLEAR     75  68  78 VRB5      30.06                   

STATION/POSITION SKY/WX   TEMP    WIND        PRES    WAVE   SWELL
                          AIR SEA DIR/SP/G            HT/PER HT/PER
                          (F)     (DEG/KT/KT) (MB)    (FT/S) (FT/S)
TRIDENT PIER               67 73   50/  4/  4 1017.7R
28.4N   80.5W                 73                N/A     1/13

$$
FLZ050-056-061-142-242-148-248-149-249-151-251-155-255-
160-260-080000-
WEST CENTRAL FLORIDA
  
CITY           SKY/WX    TMP DP  RH WIND       PRES   REMARKS
CRYSTAL RIVER  FAIR      64  59  82 W3        30.09R                  
INVERNESS      FAIR      66  61  82 CALM      30.09R                  
BROOKSVILLE    CLEAR     66  57  72 NW7         N/A                   
CLEARWATER AIR FAIR      64  61  88 N7        30.09R                  
ST PETE CLEARW CLEAR     67  60  78 NW12      30.09R                  
TAMPA INTL     PTCLDY    69  60  73 NW8       30.09R                  
TAMPA EXEC     CLEAR     70  61  73 NW6       30.09R                  
PLANT CITY     CLEAR     72  63  73 NW6       30.10R                  
MACDILL AFB    CLEAR     68  64  88 N6        30.09R                  
PETER O KNIGHT CLEAR     72  63  73 N7        30.09R                  
ST PETERSBURG    N/A    N/A N/A N/A MISG      30.07R                  
SARASOTA       CLEAR     69  62  78 N6        30.07R                  
VENICE         FAIR      72  64  78 NW10      30.09R                  

STATION/POSITION SKY/WX   TEMP    WIND        PRES    WAVE   SWELL
                          AIR SEA DIR/SP/G            HT/PER HT/PER
                          (F)     (DEG/KT/KT) (MB)    (FT/S) (FT/S)
CLEARWATER BEACH                  350/  9/ 11 1019.1R
MIDDLE TAMPA BAY           70     330/  8/ 10 1019.0R
VENICE                     71 73  340/ 11/ 12 1018.3R

$$
FLZ066-069-070-075>078-162-262-165-265-080000-
SOUTHWEST FLORIDA AND KEYS
  
CITY           SKY/WX    TMP DP  RH WIND       PRES   REMARKS
PUNTA GORDA    CLEAR     73  64  73 NW7       30.08R                  
FT MYERS       MOCLDY    76  67  73 NW7       30.05R                  
SOUTHWEST INTL MOCLDY    76  67  73 W6        30.05R                  
NAPLES         CLEAR     75  69  81 NW5       30.05R                  
MARCO ISLAND   PTCLDY    75  70  83 W3        30.05R                  
MARATHON       PTCLDY    80  75  84 NW3       30.04R                  
KEY WEST NAS   PTCLDY    77  74  90 N6        30.04R                  
KEY WEST INTL  CLEAR     79  77  94 N5        30.04R                  

STATION/POSITION SKY/WX   TEMP    WIND        PRES    WAVE   SWELL
                          AIR SEA DIR/SP/G            HT/PER HT/PER
                          (F)     (DEG/KT/KT) (MB)    (FT/S) (FT/S)
NAPLES                        76              1017.4R
26.0N   85.6W              75 77   30/ 10/ 12 1018.4R   3/ 7   3/ 7
DRY TORTUGAS               76      90/  7/  7 1017.3R
SAND KEY                   77      40/  9/ 10 1017.6R
LONG KEY                   78 80  300/  5/  5 1017.5R
MOLASSES REEF              79 80  300/  2/  3 1017.4R

$$
FLZ067-068-071>074-168-172>174-080000-
SOUTHEAST FLORIDA 
  
CITY           SKY/WX    TMP DP  RH WIND       PRES   REMARKS
W PALM BEACH   PTCLDY    75  70  84 E6        30.05R                  
BOCA RATON     PTCLDY    77  72  83 CALM      30.04R                  
FT LAUDER-EXEC PTCLDY    77  70  79 CALM      30.04R                  
FT LAUDERDALE  PTCLDY    78  72  81 E5        30.03R                  
POMPANO BEACH  CLEAR     77  72  84 E3        30.04R                  
PEMBROKE PINES CLOUDY    79  71  76 E6        30.05R                  
OPA LOCKA      CLOUDY    80  72  76 SE6       30.04R                  
MIAMI          MOCLDY    80  73  79 SE5       30.04R                  
WEST KENDALL   PTCLDY    77  74  90 E5        30.04R                  
HOMESTEAD      LGT RAIN  78  78 100 CALM      30.04R                  

STATION/POSITION SKY/WX   TEMP    WIND        PRES    WAVE   SWELL
                          AIR SEA DIR/SP/G            HT/PER HT/PER
                          (F)     (DEG/KT/KT) (MB)    (FT/S) (FT/S)
PORT EVERGLADES            78     110/  2/  3 1017.1R
VIRGINIA KEY               78 84   80/  4/  5 1017.5R
LAKE WORTH                 76 79  120/  4/  5 1017.0R
FOWEY ROCKS                78 79   70/  5/  5 1017.8R

$$

  

Return to Home page


Western Regional Climate Center, wrcc@dri.edu